Terug naar catalogus

SL-16 DEB

ActiefLEO
NORAD 42239·DEBRIS·🇷🇺 Russia

Gelanceerd Mar 26, 1993 vanaf Baikonur Cosmodrome

Loading…

Volgende Passages (komende 24 uur)

TLE

VersSource: Space-Track

Epoch: Sep 12, 2026, 16:50 UTC

1 42239U 93016CT  26255.70171146  .00007969  00000-0  20073-2 0  9991
2 42239  71.1190  24.8480 0079152  86.3138 274.7051 14.49513310947197

Volg SL-16 DEB in realtime met AllMySat

Download on the App Store